Temperature
13 13 14 14 14 13 13 12 12 13 12 12 11 11 12 12 12 12 12 12 12 13 13 13 13 13 12 12 12 12 12 12 12 11 11 11 11 11 11 11 11 10 10 10
13 14 13 13 13 13 13 12 12 12 12 11 11 12 11 11 12 11 12 12 12 12 12 12 12 12 12 12 12 12 11 11 11 11 11 11 11 11 10 10 10 10 10 10
12 13 13 13 12 12 12 12 12 12 12 11 10 11 11 11 11 11 11 12 12 12 12 12 12 12 12 12 11 11 11 11 11 11 11 10 10 10 10 10 10 10 10 10
11 13 13 12 12 12 12 12 11 11 11 10 11 12 12 12 11 11 11 11 12 12 12 12 12 12 11 11 11 11 11 11 10 10 10 10 10 10 10 10 10 10 9 9
10 11 11 12 12 11 12 12 11 10 10 10 11 11 11 12 12 12 11 11 12 12 12 12 11 11 11 11 11 11 11 10 10 10 10 9 9 9 9 9 9 9 9 9
9 11 12 12 12 12 12 12 11 10 9 10 10 9 10 12 12 11 11 11 11 11 11 11 11 11 11 11 10 10 10 10 10 10 9 9 9 9 9 9 9 9 9 9
9 10 10 10 11 12 12 11 11 10 10 10 10 11 12 12 11 11 11 11 11 11 11 11 10 10 10 10 10 10 10 10 9 9 9 9 9 8 8 8 8 8 8 8
8 9 10 10 10 10 10 11 11 11 11 11 11 11 11 11 11 11 11 11 11 10 10 10 10 10 10 10 10 9 9 9 9 9 9 8 8 8 8 8 8 8 8 8
8 9 10 10 10 11 11 11 11 11 11 11 11 11 11 11 11 11 10 10 10 10 10 10 9 9 9 9 9 9 9 9 8 8 8 8 8 8 8 8 7 7 7 7
7 8 9 10 11 11 11 11 11 11 11 11 11 10 10 10 10 10 10 10 10 9 9 9 9 9 9 9 8 8 8 8 8 8 8 8 7 7 7 7 7 7 7 7
7 8 9 10 11 11 11 11 11 11 10 10 10 10 10 10 10 9 9 9 9 9 9 9 8 8 8 8 8 8 8 8 7 7 7 7 7 7 7 7 7 7 7 7
8 9 8 10 11 11 10 10 10 10 10 10 10 10 10 9 9 9 9 9 9 8 8 8 8 8 8 8 7 7 7 7 7 7 7 7 7 7 7 7 6 6 6 6
10 11 11 11 11 10 10 10 10 10 10 9 9 9 9 9 9 9 8 8 8 8 8 8 7 7 7 7 7 7 7 7 6 6 6 6 6 6 6 6 6 6 6 6
10 10 10 10 10 10 10 10 10 9 9 9 9 9 9 8 8 8 8 8 8 7 7 7 7 7 7 7 6 6 6 6 6 6 6 6 5 6 6 6 6 6 6 6
10 10 10 10 10 9 9 9 9 9 9 9 9 8 8 8 8 8 7 7 7 7 7 7 6 6 6 6 6 6 6 6 6 5 5 5 5 5 5 5 5 5 5 5
9 9 9 9 9 9 9 8 8 8 8 8 8 8 8 8 7 7 7 7 7 7 6 6 6 6 6 6 6 6 5 5 5 5 5 5 5 4 5 5 4 4 4 4
9 8 8 8 8 8 8 8 8 8 8 8 8 7 7 7 7 7 7 6 6 6 6 6 6 6 6 6 6 5 5 5 5 4 4 4 4 4 4 4 4 4 4 4
9 9 9 9 8 8 8 8 8 8 7 7 7 7 7 7 7 7 6 6 6 6 6 6 5 5 5 5 5 5 5 5 4 4 4 4 3 3 3 3 3 3 3 3
8 8 8 8 8 8 8 7 7 7 7 7 7 7 7 7 7 6 6 6 6 6 6 5 5 5 5 5 5 5 4 4 4 3 3 3 3 3 3 3 3 3 3 2
8 8 8 8 7 7 7 7 7 7 7 7 6 6 6 6 6 6 6 5 5 5 5 5 5 5 5 4 4 4 4 3 3 3 3 3 3 3 2 2 2 2 2 2
8 8 7 7 7 7 7 6 6 6 6 6 6 6 6 6 6 6 5 5 5 5 5 5 4 4 4 4 4 3 3 3 3 3 3 2 2 2 2 2 2 2 2 1
7 7 7 7 7 6 6 6 6 6 6 6 6 6 6 5 5 5 5 5 5 5 4 4 4 4 4 3 3 3 3 2 2 2 2 2 2 2 1 1 1 1 1 1
7 7 6 6 6 6 6 6 6 5 5 5 5 5 5 5 5 5 5 5 4 4 4 4 4 4 3 3 3 3 2 2 2 2 2 2 1 1 1 1 1 1 1 1
6 6 6 6 6 5 5 5 5 5 5 5 5 5 5 5 5 5 5 4 4 4 4 4 3 3 3 3 2 2 2 2 2 2 1 1 1 1 1 1 1 1 0 0
6 6 5 5 5 5 5 5 5 5 5 5 4 4 4 4 4 4 4 4 4 3 3 3 3 3 2 2 2 2 2 2 1 1 1 1 1 0 0 0 0 0 0 -0
6 5 5 5 5 5 5 4 4 4 4 4 4 4 4 4 4 3 3 3 3 3 3 3 2 2 2 2 2 2 1 1 1 1 1 1 0 0 -0 -0 -0 -0 -0 -0
5 5 5 4 4 4 4 4 4 4 4 4 4 4 3 3 3 3 3 3 3 3 2 2 2 2 2 2 1 1 1 1 1 1 0 0 -0 -0 -0 -0 -0 -0 -0 -1
Wind_Speed
4 3 2 2 3 3 5 6 6 6 5 5 5 4 2 0 2 2 2 1 1 2 3 2 2 2 2 2 2 2 2 2 2 1 1 1 1 1 1 1 1 1 1 1
1 0 1 1 3 3 4 4 4 3 5 4 1 1 1 1 2 1 1 1 1 2 2 3 3 3 3 2 2 3 3 2 2 1 1 0 1 1 1 1 1 1 1 1
2 2 2 3 4 4 3 3 5 6 6 1 0 2 3 3 2 2 2 2 2 2 3 3 4 4 3 3 2 2 2 2 2 2 1 1 1 0 1 1 1 1 2 2
1 1 3 5 1 3 3 2 2 2 2 3 3 3 2 2 3 2 2 2 2 1 2 2 3 2 2 2 3 3 2 1 1 2 2 1 1 1 1 1 1 2 2 2
2 2 4 5 2 2 4 3 2 2 1 1 1 3 2 1 2 3 3 3 3 2 2 2 2 2 3 2 2 2 2 3 2 2 2 2 2 2 2 1 2 2 2 2
3 2 4 4 4 1 3 3 2 1 1 1 4 1 4 2 1 1 1 1 1 1 2 2 1 2 3 3 2 3 4 3 3 2 3 3 3 3 2 2 2 2 2 3
3 3 5 5 4 2 3 4 3 1 2 3 4 4 2 0 0 1 0 1 1 2 2 2 2 3 3 2 3 4 3 2 2 2 3 4 3 2 2 2 2 2 2 3
3 3 5 3 3 3 4 2 1 1 2 2 1 1 1 1 1 1 1 1 2 2 1 1 2 3 2 2 3 2 2 1 1 2 2 2 2 2 2 1 1 2 2 3
5 5 3 1 2 1 1 1 1 1 0 2 1 1 1 0 1 1 1 1 1 2 1 1 1 3 2 2 1 1 1 1 1 1 1 1 2 2 2 2 2 2 2 3
2 4 3 3 2 2 1 0 0 0 1 2 1 0 0 0 0 0 1 1 1 2 2 1 1 1 2 2 1 1 1 1 1 1 2 1 2 2 2 2 3 3 3 4
3 4 3 3 2 2 1 2 2 2 1 1 2 0 1 1 1 1 0 1 1 2 2 2 1 1 1 1 1 1 1 1 1 1 2 2 2 2 3 3 4 4 4 4
6 6 4 5 4 1 0 0 0 1 1 1 1 1 1 1 1 1 1 1 1 1 1 1 1 1 1 1 1 1 1 1 1 1 1 1 2 3 4 4 5 5 5 4
5 3 3 3 2 2 2 2 1 1 2 2 1 1 1 1 1 1 1 1 2 2 2 1 1 1 2 1 1 1 2 2 1 1 1 2 2 2 3 4 4 4 4 5
3 2 1 3 3 3 2 1 0 1 1 1 1 1 0 0 0 1 2 2 2 1 1 1 1 2 2 1 1 1 2 2 1 2 2 2 2 2 2 2 3 4 4 5
4 4 4 3 1 1 0 1 1 1 1 1 0 1 1 1 1 2 2 1 1 1 1 1 1 2 2 1 1 1 1 1 1 2 2 2 2 2 2 2 2 3 3 4
3 1 1 2 2 2 1 1 2 3 2 2 2 2 2 2 1 1 1 1 2 2 2 2 3 3 1 1 2 1 1 2 1 1 1 1 1 2 2 2 2 2 3 3
4 2 2 3 3 4 4 4 4 4 4 4 4 3 1 1 0 0 1 2 2 3 3 3 3 2 2 1 2 1 1 2 1 1 1 2 2 2 2 2 3 3 3 3
6 6 6 5 5 4 4 4 3 4 4 4 3 2 2 3 3 3 2 1 1 1 2 2 2 2 2 2 1 1 1 1 1 2 2 2 2 2 2 2 3 3 3 3
4 4 3 3 3 4 4 4 4 4 3 2 3 3 3 3 3 2 1 1 1 2 4 3 3 1 2 2 1 1 1 1 1 1 2 2 2 2 2 2 3 3 3 3
3 3 2 2 2 3 3 3 2 3 3 3 3 2 2 3 2 2 2 3 4 3 3 3 2 2 2 2 1 1 1 1 1 1 1 2 2 3 3 3 3 3 3 3
3 3 2 2 2 2 3 3 2 2 2 2 3 4 4 3 2 2 2 3 4 2 2 2 1 1 2 1 0 1 1 1 1 2 2 2 3 3 3 3 4 4 4 4
3 3 3 2 2 2 2 2 2 2 2 2 3 2 2 2 2 2 3 3 3 2 1 1 1 2 2 0 1 1 1 2 2 2 3 3 3 3 4 4 4 4 4 4
3 3 3 3 3 3 2 2 2 3 3 3 3 3 4 4 3 3 3 3 2 2 1 2 2 2 1 0 0 1 1 2 2 3 3 3 3 4 4 4 4 4 4 4
3 3 3 2 2 2 2 3 3 2 3 3 3 3 3 2 2 2 2 2 2 2 1 2 2 1 1 0 1 1 2 2 3 3 3 3 3 3 4 4 4 4 4 5
3 3 3 3 3 3 4 3 2 1 1 1 2 2 2 2 2 2 1 2 2 2 1 2 3 2 1 1 1 2 2 3 3 3 3 3 3 3 4 4 4 4 4 4
3 3 3 4 4 3 3 3 2 2 2 1 2 2 1 1 1 1 1 2 2 2 1 2 2 2 1 1 2 2 2 3 3 3 3 3 3 4 4 4 5 4 4 4
2 2 2 1 2 2 2 3 3 3 3 3 2 2 1 1 1 1 1 1 1 2 2 2 2 2 2 2 2 2 2 2 2 2 3 3 3 4 4 5 4 4 4 5
Wind_Direction
238 245 202 224 229 192 193 191 195 225 229 256 251 246 250 186 83 86 91 105 178 196 200 196 180 175 183 193 187 179 159 160 195 208 203 195 214 216 200 191 209 209 202 259
286 295 171 271 271 211 219 205 210 237 262 270 259 131 133 153 126 129 220 228 234 218 200 194 193 188 192 197 197 178 172 188 198 190 179 176 226 226 215 215 219 202 211 239
254 306 29 285 253 207 198 189 182 218 243 224 124 194 196 191 186 206 236 240 232 229 216 211 201 191 189 193 181 177 187 193 194 194 200 219 231 234 246 244 228 229 244 248
190 55 233 244 274 181 182 218 201 229 248 206 215 209 181 172 188 219 244 246 240 227 224 217 195 181 175 166 170 175 185 206 217 207 219 236 221 224 249 242 226 233 245 249
135 200 274 295 283 174 185 262 244 222 289 292 73 53 358 283 215 219 225 227 221 209 197 180 179 172 144 158 182 184 205 217 225 213 216 222 231 239 240 235 248 248 247 242
130 178 241 269 309 279 134 291 314 152 175 131 104 107 273 276 256 257 258 222 182 153 128 139 170 154 138 161 182 225 236 231 222 215 216 224 232 236 244 231 241 249 257 252
161 217 263 285 309 97 146 263 296 181 173 158 170 213 247 130 205 169 132 138 127 128 138 165 156 144 146 176 216 235 237 227 222 222 225 229 234 238 238 239 250 257 261 268
153 196 263 305 106 158 220 273 215 173 170 169 196 326 28 76 96 99 89 102 119 124 139 151 149 148 160 215 238 235 215 212 231 240 243 250 228 243 242 227 242 264 273 285
190 212 263 248 197 260 110 158 219 177 198 147 127 0 5 49 104 102 126 135 123 136 139 131 166 167 184 240 239 204 194 243 271 268 265 244 223 234 248 234 236 259 260 268
239 264 276 283 316 352 19 285 307 97 119 133 157 219 298 160 86 92 83 123 126 125 138 203 244 219 214 229 202 165 184 252 276 269 281 275 254 233 229 238 244 253 257 264
251 277 310 297 280 299 350 36 52 44 71 151 150 211 222 220 219 198 160 113 135 160 182 213 225 235 244 223 168 167 201 258 275 267 260 273 273 250 244 243 240 244 246 243
225 227 211 251 263 250 110 326 111 62 14 360 172 219 262 241 222 179 172 135 135 169 194 214 205 234 254 227 176 171 220 259 259 271 281 282 292 307 293 276 285 280 272 270
222 226 217 258 264 240 220 243 243 213 203 241 256 211 197 247 218 165 159 165 188 203 213 217 215 240 255 227 176 187 213 235 250 261 263 265 269 276 306 322 321 309 304 302
219 168 227 247 251 257 262 269 326 338 286 226 230 231 164 131 127 194 223 221 203 185 202 214 220 258 273 224 190 216 222 243 249 237 245 255 259 260 262 285 308 315 317 316
234 226 221 227 218 244 251 86 72 330 318 315 265 213 192 197 229 241 249 219 131 136 195 212 247 273 279 206 199 220 230 238 246 251 247 250 260 267 274 273 277 294 314 325
227 214 176 187 204 216 214 223 234 251 253 252 254 247 238 231 243 251 229 172 161 202 225 224 249 265 255 218 199 205 235 266 273 257 262 272 266 267 275 278 281 289 295 300
159 187 207 228 232 235 233 234 229 240 245 242 242 243 224 143 68 282 251 236 227 229 230 231 248 264 261 229 197 211 232 248 275 290 256 262 262 263 267 268 269 276 280 282
203 204 202 205 215 227 241 243 236 236 241 246 242 220 204 197 217 237 245 252 314 303 271 253 251 257 223 211 212 213 213 229 235 234 247 255 263 262 261 266 273 280 291 297
207 200 204 209 210 211 228 237 236 235 237 225 215 223 230 228 226 224 195 171 214 265 275 270 283 283 231 237 249 201 206 220 251 267 259 277 288 277 270 272 276 278 282 290
202 200 200 213 210 209 228 241 239 240 239 215 207 217 239 244 223 203 192 211 228 242 258 262 242 223 237 245 261 201 201 213 237 268 275 265 270 275 275 275 275 276 279 279
192 190 190 201 228 235 225 217 213 239 251 218 203 217 230 240 221 193 194 248 268 261 252 263 240 234 238 238 201 149 190 219 233 246 261 268 276 280 280 280 280 277 275 279
185 186 200 207 214 242 248 230 221 231 243 238 227 220 223 239 236 228 225 235 250 254 239 221 239 261 271 288 149 206 235 250 253 253 254 258 264 271 276 280 280 278 277 275
193 195 201 205 211 229 252 246 235 227 229 230 223 219 221 224 212 209 253 259 230 235 230 227 255 273 280 104 206 249 257 260 259 257 259 261 263 264 267 272 274 275 275 275
196 202 208 206 185 189 235 255 252 240 236 237 229 220 213 224 246 235 236 239 235 221 206 250 264 264 281 197 238 253 259 265 269 268 269 268 269 272 273 273 274 274 273 274
201 201 194 185 199 221 230 236 237 235 229 250 256 242 222 210 220 242 231 211 218 209 226 251 257 262 248 231 238 250 259 265 271 275 275 278 278 278 277 276 275 276 276 275
200 208 215 217 217 219 213 203 209 223 216 237 274 271 262 252 220 212 206 210 210 225 233 238 238 250 252 250 254 260 264 274 284 284 279 282 284 285 285 284 283 281 279 276
199 206 207 229 238 217 205 200 203 214 210 206 237 256 247 231 202 204 203 205 212 223 232 234 232 241 251 256 265 271 272 273 274 276 280 283 282 281 281 282 282 282 283 282
Height
1505 1503 1503 1504 1504 1506 1508 1510 1515 1512 1511 1506 1504 1503 1503 1502 1502 1502 1503 1504 1505 1506 1507 1508 1509 1511 1512 1514 1515 1516 1517 1517 1518 1519 1519 1520 1520 1521 1521 1521 1521 1521 1521 1521
1505 1502 1502 1504 1503 1504 1505 1506 1508 1508 1507 1501 1501 1502 1502 1502 1502 1502 1503 1503 1504 1504 1505 1506 1507 1508 1510 1511 1513 1514 1515 1515 1516 1516 1517 1517 1518 1518 1519 1519 1519 1519 1519 1518
1510 1504 1502 1507 1503 1503 1503 1502 1503 1506 1504 1501 1500 1500 1500 1500 1501 1501 1502 1502 1502 1502 1503 1504 1505 1506 1507 1509 1511 1512 1513 1513 1514 1514 1514 1515 1515 1516 1516 1516 1516 1516 1516 1516
1513 1509 1513 1505 1498 1498 1499 1500 1500 1499 1499 1498 1498 1497 1498 1499 1499 1499 1500 1500 1501 1501 1501 1502 1503 1504 1506 1507 1508 1510 1510 1511 1511 1512 1512 1513 1513 1513 1513 1514 1513 1513 1513 1513
1516 1514 1510 1502 1497 1498 1500 1499 1498 1498 1497 1497 1497 1497 1498 1498 1498 1498 1499 1499 1499 1499 1500 1501 1502 1503 1504 1506 1507 1507 1508 1508 1509 1510 1510 1510 1510 1510 1510 1511 1510 1510 1510 1510
1517 1513 1512 1503 1496 1494 1498 1500 1496 1495 1496 1496 1497 1501 1499 1497 1496 1496 1497 1497 1498 1498 1499 1500 1501 1502 1503 1504 1504 1505 1505 1506 1507 1507 1507 1508 1508 1508 1508 1508 1508 1507 1507 1507
1515 1514 1508 1500 1496 1495 1504 1503 1495 1494 1494 1495 1496 1497 1497 1496 1495 1495 1495 1496 1496 1496 1497 1498 1499 1500 1501 1502 1502 1503 1503 1503 1504 1504 1505 1505 1505 1505 1505 1505 1505 1504 1504 1503
1516 1515 1511 1498 1497 1499 1499 1495 1494 1494 1494 1495 1495 1495 1495 1494 1494 1493 1493 1494 1494 1494 1495 1496 1497 1498 1498 1499 1500 1500 1500 1501 1501 1501 1502 1502 1502 1502 1502 1501 1501 1501 1500 1500
1507 1506 1499 1496 1495 1495 1495 1494 1494 1493 1494 1494 1494 1494 1493 1493 1493 1492 1493 1492 1493 1493 1493 1494 1495 1496 1496 1496 1497 1498 1498 1498 1498 1498 1499 1499 1499 1498 1498 1498 1497 1497 1497 1496
1504 1499 1496 1495 1495 1495 1494 1494 1493 1493 1493 1493 1493 1493 1492 1492 1492 1491 1491 1491 1491 1491 1492 1492 1493 1493 1494 1495 1495 1495 1494 1494 1495 1495 1495 1495 1495 1495 1495 1494 1494 1493 1493 1492
1501 1497 1495 1493 1493 1493 1493 1493 1493 1493 1493 1493 1492 1492 1491 1491 1491 1490 1490 1489 1490 1490 1490 1490 1491 1491 1492 1492 1492 1492 1492 1491 1492 1492 1492 1491 1491 1491 1491 1491 1490 1490 1489 1489
1496 1493 1493 1492 1491 1492 1492 1491 1492 1492 1491 1491 1492 1491 1490 1489 1489 1489 1488 1488 1488 1488 1489 1489 1489 1489 1489 1489 1489 1489 1489 1489 1488 1488 1488 1488 1487 1487 1487 1487 1487 1487 1486 1486
1489 1489 1490 1489 1489 1490 1490 1490 1491 1491 1490 1490 1490 1490 1489 1488 1488 1487 1487 1487 1486 1486 1486 1486 1486 1486 1487 1487 1487 1486 1486 1485 1485 1485 1485 1484 1484 1483 1483 1483 1483 1483 1482 1481
1487 1487 1487 1487 1488 1488 1489 1489 1489 1489 1489 1489 1488 1488 1487 1486 1486 1485 1485 1485 1485 1484 1484 1484 1484 1484 1485 1485 1484 1484 1483 1483 1483 1482 1482 1481 1481 1480 1480 1479 1478 1478 1478 1477
1484 1484 1485 1485 1486 1486 1487 1486 1486 1486 1486 1486 1486 1485 1485 1484 1483 1483 1483 1483 1483 1482 1482 1482 1482 1482 1482 1482 1482 1481 1481 1480 1480 1479 1479 1479 1478 1477 1477 1476 1475 1474 1474 1473
1480 1481 1482 1482 1482 1483 1483 1484 1483 1483 1483 1483 1483 1483 1483 1482 1482 1481 1481 1481 1480 1480 1480 1480 1480 1480 1480 1479 1479 1478 1478 1477 1477 1476 1476 1475 1475 1474 1473 1472 1471 1470 1470 1469
1477 1478 1478 1479 1479 1480 1480 1480 1480 1480 1480 1480 1480 1480 1480 1480 1479 1479 1479 1479 1478 1478 1478 1478 1477 1477 1477 1476 1476 1475 1475 1474 1474 1473 1473 1472 1471 1470 1469 1469 1468 1467 1466 1466
1474 1475 1476 1476 1476 1477 1477 1477 1478 1477 1477 1477 1477 1477 1477 1477 1476 1476 1476 1476 1476 1476 1475 1475 1475 1474 1474 1473 1473 1472 1472 1471 1470 1470 1469 1468 1467 1466 1466 1465 1464 1463 1462 1462
1471 1472 1473 1473 1474 1474 1474 1474 1474 1474 1474 1474 1474 1474 1474 1474 1474 1474 1474 1473 1473 1472 1472 1472 1471 1471 1471 1470 1470 1469 1468 1468 1467 1466 1465 1465 1464 1463 1462 1461 1460 1459 1458 1457
1467 1468 1469 1470 1470 1471 1471 1470 1471 1471 1471 1471 1471 1471 1471 1471 1471 1471 1471 1471 1471 1470 1470 1469 1468 1468 1468 1467 1467 1466 1465 1465 1464 1463 1462 1461 1460 1459 1458 1457 1456 1455 1454 1453
1464 1465 1466 1466 1467 1467 1467 1467 1467 1467 1467 1468 1468 1468 1468 1468 1468 1468 1468 1468 1468 1468 1467 1466 1466 1465 1465 1464 1464 1463 1462 1462 1461 1459 1458 1457 1456 1455 1454 1453 1452 1451 1450 1449
1461 1462 1463 1463 1464 1464 1464 1464 1464 1464 1464 1464 1465 1465 1465 1465 1465 1465 1465 1465 1465 1465 1464 1463 1463 1462 1462 1462 1461 1460 1459 1458 1457 1456 1455 1454 1453 1452 1450 1449 1448 1447 1445 1444
1458 1459 1460 1460 1461 1461 1461 1461 1461 1461 1461 1461 1461 1461 1462 1462 1462 1462 1462 1462 1462 1462 1461 1461 1460 1460 1459 1458 1457 1456 1456 1455 1454 1453 1451 1450 1449 1448 1447 1445 1444 1442 1441 1440
1455 1456 1457 1457 1458 1458 1457 1457 1458 1458 1458 1458 1458 1459 1459 1458 1459 1459 1459 1459 1459 1458 1458 1458 1457 1456 1456 1455 1454 1453 1452 1452 1450 1449 1448 1447 1445 1444 1443 1441 1439 1438 1437 1435
1452 1452 1453 1454 1454 1454 1454 1454 1454 1454 1454 1455 1455 1455 1455 1455 1455 1455 1456 1455 1455 1455 1455 1454 1454 1453 1452 1451 1451 1450 1449 1448 1447 1446 1445 1443 1441 1440 1438 1437 1435 1434 1432 1431
1448 1449 1449 1450 1450 1450 1451 1451 1451 1451 1450 1451 1451 1451 1452 1452 1452 1452 1452 1452 1452 1452 1451 1451 1450 1450 1449 1448 1447 1447 1446 1445 1444 1442 1441 1439 1438 1436 1434 1433 1431 1430 1428 1427
1445 1445 1446 1446 1447 1447 1447 1447 1447 1447 1447 1447 1448 1448 1448 1449 1449 1449 1449 1449 1448 1448 1448 1447 1447 1446 1446 1445 1444 1443 1442 1441 1440 1439 1437 1436 1434 1433 1431 1429 1427 1425 1424 1422